Schneifelwetter: Wetterstation Hallschlag, 537 m . NN
Wetterdaten: Mittwoch, 22.12.2010
Datum Zeit Temp. A. Feuchte A. Luftdruck Regen Wind Richtung Richtung Sonnenschein Helligkeit T Regen Taupunkt Windchill
22.12.2010 00:09 -0,2 C 99 % 1001 hPa 0,3 l/m 0,6 km/h (0 Bft) N 5 0 min 0 lux 15,00 min -0,3 C -0,2 C
22.12.2010 00:24 -0,2 C 99 % 1001 hPa 0,0 l/m 7,0 km/h (2 Bft) NO 45 0 min 0 lux 0,00 min -0,3 C -0,8 C
22.12.2010 00:39 -0,2 C 99 % 1001 hPa 0,0 l/m 3,8 km/h (1 Bft) NO 45 0 min 0 lux 0,00 min -0,3 C -0,2 C
22.12.2010 00:54 -0,2 C 99 % 1000 hPa 0,0 l/m 4,1 km/h (1 Bft) NO 50 0 min 0 lux 0,00 min -0,3 C -0,2 C
22.12.2010 01:09 -0,2 C 99 % 1000 hPa 0,0 l/m 7,9 km/h (2 Bft) NO 55 0 min 0 lux 0,00 min -0,3 C -1,8 C
22.12.2010 01:24 -0,2 C 99 % 1000 hPa 0,0 l/m 5,6 km/h (1 Bft) O-NO 65 0 min 0 lux 0,00 min -0,3 C -0,2 C
22.12.2010 01:39 -0,2 C 99 % 1000 hPa 0,0 l/m 4,7 km/h (1 Bft) O-NO 60 0 min 0 lux 0,00 min -0,3 C -0,2 C
22.12.2010 01:54 -0,2 C 99 % 1000 hPa 0,0 l/m 4,2 km/h (1 Bft) O-NO 65 0 min 0 lux 0,00 min -0,3 C -0,2 C
22.12.2010 02:09 -0,2 C 99 % 1000 hPa 0,0 l/m 0,0 km/h (0 Bft) O-NO 60 0 min 0 lux 0,00 min -0,3 C -0,2 C
22.12.2010 02:24 -0,2 C 99 % 1000 hPa 0,0 l/m 0,0 km/h (0 Bft) O-NO 60 0 min 0 lux 0,00 min -0,3 C -0,2 C
22.12.2010 02:39 -0,2 C 99 % 1000 hPa 0,0 l/m 2,9 km/h (1 Bft) O-NO 60 0 min 0 lux 0,00 min -0,3 C -0,2 C
22.12.2010 02:54 -0,2 C 99 % 1000 hPa 0,0 l/m 5,3 km/h (1 Bft) N 10 0 min 0 lux 0,00 min -0,3 C -0,2 C
22.12.2010 03:09 -0,3 C 99 % 1000 hPa 0,0 l/m 2,3 km/h (1 Bft) N-NO 25 0 min 0 lux 0,00 min -0,4 C -0,3 C
22.12.2010 03:24 -0,3 C 99 % 1000 hPa 0,0 l/m 0,0 km/h (0 Bft) N-NO 25 0 min 0 lux 0,00 min -0,4 C -0,3 C
22.12.2010 03:39 -0,3 C 99 % 1000 hPa 0,0 l/m 0,0 km/h (0 Bft) N-NO 25 0 min 0 lux 0,00 min -0,4 C -0,3 C
22.12.2010 03:54 -0,3 C 99 % 1000 hPa 0,0 l/m 0,0 km/h (0 Bft) N-NO 25 0 min 0 lux 0,00 min -0,4 C -0,3 C
22.12.2010 04:09 -0,3 C 99 % 1000 hPa 0,0 l/m 0,0 km/h (0 Bft) N-NO 25 0 min 0 lux 0,00 min -0,4 C -0,3 C
22.12.2010 04:24 -0,3 C 99 % 1000 hPa 0,0 l/m 0,0 km/h (0 Bft) N-NO 25 0 min 0 lux 0,00 min -0,4 C -0,3 C
22.12.2010 04:39 -0,3 C 99 % 1000 hPa 0,6 l/m 7,2 km/h (2 Bft) N-NO 25 0 min 0 lux 15,00 min -0,4 C -1,1 C
22.12.2010 04:54 -0,3 C 99 % 1000 hPa 0,0 l/m 2,1 km/h (1 Bft) N-NO 25 0 min 0 lux 0,00 min -0,4 C -0,3 C
22.12.2010 05:09 -0,3 C 99 % 1000 hPa 0,0 l/m 0,0 km/h (0 Bft) N-NO 25 0 min 0 lux 0,00 min -0,4 C -0,3 C
22.12.2010 05:24 -0,3 C 99 % 1000 hPa 0,0 l/m 0,0 km/h (0 Bft) N-NO 25 0 min 0 lux 0,00 min -0,4 C -0,3 C
22.12.2010 05:39 -0,3 C 99 % 1000 hPa 0,0 l/m 2,8 km/h (1 Bft) N-NO 25 0 min 0 lux 0,00 min -0,4 C -0,3 C
22.12.2010 05:54 -0,3 C 99 % 999 hPa 0,0 l/m 0,0 km/h (0 Bft) N-NO 25 0 min 0 lux 0,00 min -0,4 C -0,3 C
22.12.2010 06:09 -0,3 C 99 % 999 hPa 0,0 l/m 0,0 km/h (0 Bft) N-NO 25 0 min 0 lux 0,00 min -0,4 C -0,3 C
22.12.2010 06:24 -0,3 C 99 % 1000 hPa 0,0 l/m 0,0 km/h (0 Bft) N-NO 25 0 min 0 lux 0,00 min -0,4 C -0,3 C
22.12.2010 06:39 -0,3 C 99 % 1000 hPa 0,0 l/m 0,0 km/h (0 Bft) N-NO 25 0 min 0 lux 0,00 min -0,4 C -0,3 C
22.12.2010 06:54 -0,3 C 99 % 1000 hPa 0,0 l/m 2,5 km/h (1 Bft) N-NO 25 0 min 0 lux 0,00 min -0,4 C -0,3 C
22.12.2010 07:09 -0,3 C 99 % 1000 hPa 0,0 l/m 6,0 km/h (2 Bft) N-NO 20 0 min 0 lux 0,00 min -0,4 C -0,3 C
22.12.2010 07:24 -0,3 C 99 % 1000 hPa 0,0 l/m 6,4 km/h (2 Bft) NO 35 0 min 0 lux 0,00 min -0,4 C -0,3 C
22.12.2010 07:39 -0,3 C 99 % 1000 hPa 0,0 l/m 5,4 km/h (1 Bft) N-NO 25 0 min 0 lux 0,00 min -0,4 C -0,3 C
22.12.2010 08:00 -0,3 C 99 % 1000 hPa 0,0 l/m 4,2 km/h (1 Bft) N-NO 25 0 min 0 lux 0,00 min -0,4 C -0,3 C
22.12.2010 08:15 -0,2 C 99 % 1000 hPa 0,0 l/m 5,2 km/h (1 Bft) N-NO 20 0 min 39 lux 0,00 min -0,3 C -0,2 C
22.12.2010 08:30 -0,2 C 99 % 1000 hPa 0,0 l/m 6,5 km/h (2 Bft) N-NO 20 0 min 225 lux 0,00 min -0,3 C -0,3 C
22.12.2010 08:45 -0,2 C 99 % 1000 hPa 0,0 l/m 8,8 km/h (2 Bft) N-NO 30 0 min 479 lux 0,00 min -0,3 C -2,6 C
22.12.2010 09:00 -0,2 C 99 % 1000 hPa 0,0 l/m 5,9 km/h (2 Bft) NO 35 0 min 851 lux 0,00 min -0,3 C -0,2 C
22.12.2010 09:15 -0,2 C 99 % 1000 hPa 0,0 l/m 5,2 km/h (1 Bft) N-NO 30 0 min 2,14 klux 0,00 min -0,3 C -0,2 C
22.12.2010 09:29 0,0 C 99 % 1000 hPa 0,0 l/m 0,0 km/h (0 Bft) N-NO 30 0 min 3,17 klux 0,00 min -0,1 C 0,0 C
22.12.2010 09:45 0,1 C 99 % 1000 hPa 0,0 l/m 0,0 km/h (0 Bft) N-NO 30 0 min 4,76 klux 0,00 min -0,0 C 0,1 C
22.12.2010 10:00 0,3 C 99 % 1000 hPa 0,0 l/m 4,8 km/h (1 Bft) N-NO 20 0 min 7,00 klux 0,00 min 0,2 C 0,3 C
22.12.2010 10:15 0,5 C 99 % 1000 hPa 0,3 l/m 5,7 km/h (1 Bft) N-NO 25 0 min 9,7 klux 15,00 min 0,4 C 0,5 C
22.12.2010 10:30 0,8 C 99 % 1000 hPa 0,0 l/m 0,0 km/h (0 Bft) N-NO 25 0 min 10,7 klux 0,00 min 0,7 C 0,8 C
22.12.2010 10:45 1,1 C 99 % 1000 hPa 0,0 l/m 0,0 km/h (0 Bft) N-NO 25 0 min 12,1 klux 0,00 min 1,0 C 1,1 C
22.12.2010 10:59 1,2 C 99 % 1000 hPa 0,0 l/m 0,0 km/h (0 Bft) N-NO 25 0 min 16,3 klux 0,00 min 1,1 C 1,2 C
22.12.2010 11:15 1,7 C 99 % 1000 hPa 0,0 l/m 0,0 km/h (0 Bft) N-NO 25 0 min 17,1 klux 0,00 min 1,6 C 1,7 C
22.12.2010 11:30 1,7 C 99 % 1000 hPa 0,3 l/m 3,3 km/h (1 Bft) N-NO 30 0 min 16,7 klux 15,00 min 1,6 C 1,7 C
22.12.2010 11:45 1,9 C 99 % 1000 hPa 0,0 l/m 4,4 km/h (1 Bft) N-NO 20 0 min 23,4 klux 0,00 min 1,8 C 1,9 C
22.12.2010 12:00 2,0 C 99 % 1000 hPa 0,0 l/m 2,9 km/h (1 Bft) N22.5 5 0 min 22,8 klux 0,00 min 1,9 C 2,0 C
22.12.2010 12:15 1,8 C 99 % 1000 hPa 0,0 l/m 2,7 km/h (1 Bft) N-NW 345 0 min 14,9 klux 0,00 min 1,7 C 1,8 C
22.12.2010 12:30 1,9 C 99 % 1000 hPa 0,0 l/m 0,0 km/h (0 Bft) N-NW 345 0 min 17,4 klux 0,00 min 1,8 C 1,9 C
22.12.2010 12:44 2,2 C 99 % 1000 hPa 0,0 l/m 0,0 km/h (0 Bft) N-NW 345 0 min 17,6 klux 0,00 min 2,1 C 2,2 C
22.12.2010 13:00 2,4 C 99 % 999 hPa 0,0 l/m 2,7 km/h (1 Bft) N-NW 345 0 min 23,0 klux 0,00 min 2,3 C 2,4 C
22.12.2010 13:15 2,5 C 99 % 999 hPa 0,0 l/m 0,0 km/h (0 Bft) N-NW 345 0 min 34,6 klux 0,00 min 2,4 C 2,5 C
22.12.2010 13:30 2,3 C 99 % 999 hPa 0,0 l/m 0,0 km/h (0 Bft) N-NW 345 0 min 18,1 klux 0,00 min 2,2 C 2,3 C
22.12.2010 13:45 2,3 C 99 % 999 hPa 0,0 l/m 0,0 km/h (0 Bft) N-NW 345 0 min 16,1 klux 0,00 min 2,2 C 2,3 C
22.12.2010 14:00 2,4 C 99 % 999 hPa 0,0 l/m 0,0 km/h (0 Bft) N-NW 345 0 min 20,6 klux 0,00 min 2,3 C 2,4 C
22.12.2010 14:14 2,4 C 99 % 999 hPa 0,0 l/m 0,0 km/h (0 Bft) N-NW 345 0 min 17,2 klux 0,00 min 2,3 C 2,4 C
22.12.2010 14:30 2,4 C 99 % 999 hPa 0,0 l/m 0,0 km/h (0 Bft) N-NW 345 0 min 14,2 klux 0,00 min 2,3 C 2,4 C
22.12.2010 14:45 2,3 C 99 % 999 hPa 0,0 l/m 0,7 km/h (0 Bft) N-NW 345 0 min 12,6 klux 0,00 min 2,2 C 2,3 C
22.12.2010 15:00 2,1 C 99 % 999 hPa 0,0 l/m 5,2 km/h (1 Bft) N 350 0 min 10,3 klux 0,00 min 2,0 C 2,1 C
22.12.2010 15:15 2,1 C 99 % 999 hPa 0,0 l/m 0,0 km/h (0 Bft) N 355 0 min 8,08 klux 0,00 min 2,0 C 2,1 C
22.12.2010 15:30 1,9 C 99 % 999 hPa 0,0 l/m 3,8 km/h (1 Bft) N 355 0 min 6,19 klux 0,00 min 1,8 C 1,9 C
22.12.2010 15:45 1,8 C 99 % 999 hPa 0,0 l/m 4,5 km/h (1 Bft) N 355 0 min 5,04 klux 0,00 min 1,7 C 1,8 C
22.12.2010 15:59 1,5 C 99 % 999 hPa 0,0 l/m 6,5 km/h (2 Bft) N 360 0 min 2,82 klux 0,00 min 1,4 C 1,4 C
22.12.2010 16:15 1,3 C 99 % 999 hPa 0,0 l/m 4,5 km/h (1 Bft) N 360 0 min 1,34 klux 0,00 min 1,2 C 1,3 C
22.12.2010 16:30 1,2 C 99 % 999 hPa 0,0 l/m 0,4 km/h (0 Bft) N 360 0 min 816 lux 0,00 min 1,1 C 1,2 C
22.12.2010 16:45 1,1 C 99 % 999 hPa 0,0 l/m 3,1 km/h (1 Bft) N 360 0 min 306 lux 0,00 min 1,0 C 1,1 C
22.12.2010 17:00 0,8 C 99 % 999 hPa 0,0 l/m 9,6 km/h (2 Bft) N22.5 355 0 min 68 lux 0,00 min 0,7 C -2,2 C
22.12.2010 17:15 0,7 C 99 % 999 hPa 0,0 l/m 0,0 km/h (0 Bft) N 360 0 min 13 lux 0,00 min 0,6 C 0,7 C
22.12.2010 17:29 0,7 C 99 % 999 hPa 0,0 l/m 6,5 km/h (2 Bft) N 360 0 min 0 lux 0,00 min 0,6 C 0,6 C
22.12.2010 17:44 0,7 C 99 % 999 hPa 0,0 l/m 0,1 km/h (0 Bft) N 360 0 min 0 lux 0,00 min 0,6 C 0,7 C
22.12.2010 18:00 0,7 C 99 % 999 hPa 0,0 l/m 5,2 km/h (1 Bft) N 360 0 min 0 lux 0,00 min 0,6 C 0,7 C
22.12.2010 18:15 0,7 C 99 % 999 hPa 0,0 l/m 5,6 km/h (1 Bft) N-NO 20 0 min 0 lux 0,00 min 0,6 C 0,7 C
22.12.2010 18:30 0,7 C 99 % 999 hPa 0,0 l/m 5,3 km/h (1 Bft) N 355 0 min 0 lux 0,00 min 0,6 C 0,7 C
22.12.2010 18:45 0,6 C 99 % 999 hPa 0,0 l/m 6,5 km/h (2 Bft) N 5 0 min 0 lux 0,00 min 0,5 C 0,5 C
22.12.2010 19:00 0,6 C 99 % 999 hPa 0,0 l/m 7,0 km/h (2 Bft) N 10 0 min 0 lux 0,00 min 0,5 C -0,0 C
22.12.2010 19:14 0,6 C 99 % 999 hPa 0,0 l/m 6,5 km/h (2 Bft) N-NO 25 0 min 0 lux 0,00 min 0,5 C 0,5 C
22.12.2010 19:30 0,5 C 99 % 999 hPa 0,0 l/m 2,4 km/h (1 Bft) N-NO 25 0 min 0 lux 0,00 min 0,4 C 0,5 C
22.12.2010 19:45 0,5 C 99 % 999 hPa 0,3 l/m 0,1 km/h (0 Bft) N-NO 25 0 min 0 lux 15,00 min 0,4 C 0,5 C
22.12.2010 20:00 0,5 C 99 % 999 hPa 0,3 l/m 4,9 km/h (1 Bft) N-NO 25 0 min 0 lux 15,00 min 0,4 C 0,5 C
22.12.2010 20:15 0,5 C 99 % 999 hPa 0,3 l/m 4,3 km/h (1 Bft) N-NO 25 0 min 0 lux 15,00 min 0,4 C 0,5 C
22.12.2010 20:30 0,4 C 99 % 999 hPa 0,3 l/m 5,0 km/h (1 Bft) N-NO 25 0 min 0 lux 15,00 min 0,3 C 0,4 C
22.12.2010 20:45 0,4 C 99 % 998 hPa 0,6 l/m 6,1 km/h (2 Bft) N-NO 25 0 min 0 lux 15,00 min 0,3 C 0,4 C
22.12.2010 20:59 0,4 C 99 % 998 hPa 0,0 l/m 8,3 km/h (2 Bft) N-NO 25 0 min 0 lux 0,00 min 0,3 C -1,5 C
22.12.2010 21:15 0,4 C 99 % 998 hPa 0,0 l/m 10,8 km/h (2 Bft) N-NO 30 0 min 0 lux 0,00 min 0,3 C -3,6 C
22.12.2010 21:30 0,4 C 99 % 998 hPa 0,0 l/m 9,2 km/h (2 Bft) N-NO 30 0 min 0 lux 0,00 min 0,3 C -2,3 C
22.12.2010 21:45 0,3 C 99 % 998 hPa 0,0 l/m 9,2 km/h (2 Bft) N-NO 30 0 min 0 lux 0,00 min 0,2 C -2,4 C
22.12.2010 22:00 0,3 C 99 % 998 hPa 0,0 l/m 10,2 km/h (2 Bft) NO 35 0 min 0 lux 0,00 min 0,2 C -3,3 C
22.12.2010 22:15 0,3 C 99 % 998 hPa 0,0 l/m 13,2 km/h (3 Bft) N-NO 25 0 min 0 lux 0,00 min 0,2 C -5,5 C
22.12.2010 22:30 0,3 C 99 % 998 hPa 0,0 l/m 9,6 km/h (2 Bft) NO 35 0 min 0 lux 0,00 min 0,2 C -2,8 C
22.12.2010 22:44 0,1 C 99 % 998 hPa 0,0 l/m 15,5 km/h (3 Bft) NO22.5 35 0 min 0 lux 0,00 min -0,0 C -7,2 C
22.12.2010 23:00 0,0 C 99 % 998 hPa 0,0 l/m 13,9 km/h (3 Bft) NO22.5 35 0 min 0 lux 0,00 min -0,1 C -6,3 C
22.12.2010 23:15 -0,2 C 99 % 998 hPa 0,0 l/m 13,3 km/h (3 Bft) NO22.5 35 0 min 0 lux 0,00 min -0,3 C -6,1 C
22.12.2010 23:30 -0,2 C 99 % 998 hPa 0,0 l/m 6,4 km/h (2 Bft) NO 40 0 min 0 lux 0,00 min -0,3 C -0,2 C
22.12.2010 23:45 -0,2 C 99 % 998 hPa 0,0 l/m 11,5 km/h (2 Bft) NO22.5 35 0 min 0 lux 0,00 min -0,3 C -4,9 C
22.12.2010 23:54 -0,2 C 99 % 998 hPa 0,0 l/m 17,0 km/h (3 Bft) N-NO22.5 30 0 min 0 lux 0,00 min -0,3 C -8,4 C
_ Min-Zeit 03:09 00:09 20:45 - 02:09 - - - - - 03:09 23:54
Minimum _ -0,3 C 99 % 998 hPa - 0,0 km/h (0 Bft) - - - - - -0,4 C -8,4 C
_ Max-Zeit 13:15 00:09 00:09 04:39 23:54 - - 00:09 13:15 00:09 13:15 13:15
Maximum _ 2,5 C 99 % 1001 hPa 0,6 l/m 17,0 km/h
N-NO (3 Bft)
- - 0 min 34,6 klux 15,00 min 2,4 C 2,5 C
Durchschnitt _ 0,5 C 99 % 1000 hPa #3,3 l/m 4,1 km/h (1 Bft) N-NO - #0 min. 4,05 klux #2:15 h 0,4 C -0,2 C